Time,TemperatureF,DewpointF,PressureIn,WindDirection,WindDirectionDegrees,WindSpeedMPH,WindSpeedGustMPH,Humidity,HourlyPrecipIn,Conditions,Clouds,dailyrainin,SoftwareType,DateUTC
2013-05-12 04:21:00,45.0,35.0,30.09,NW,316,0.0,2.0,67,0.00,,,0.01,,2013-05-12 09:21:00,
2013-05-12 04:33:00,45.0,35.0,30.09,NW,316,0.0,2.0,68,0.00,,,0.01,,2013-05-12 09:33:00,
2013-05-12 04:43:00,45.0,35.0,30.09,NW,316,0.0,2.0,68,0.00,,,0.01,,2013-05-12 09:43:00,
2013-05-12 04:53:00,44.0,34.0,30.09,NW,316,1.0,2.0,69,0.00,,,0.01,,2013-05-12 09:53:00,
2013-05-12 05:03:00,44.0,34.0,30.09,NW,316,1.0,2.0,69,0.00,,,0.01,,2013-05-12 10:03:00,
2013-05-12 05:12:00,44.0,34.0,30.09,NW,316,1.0,2.0,69,0.00,,,0.01,,2013-05-12 10:12:00,
2013-05-12 05:22:00,44.0,34.0,30.10,NW,315,1.0,3.0,69,0.00,,,0.01,,2013-05-12 10:22:00,
2013-05-12 05:33:00,44.0,34.0,30.10,WNW,298,3.0,3.0,69,0.00,,,0.01,,2013-05-12 10:33:00,
2013-05-12 05:42:00,44.0,34.0,30.10,WNW,298,3.0,3.0,69,0.00,,,0.01,,2013-05-12 10:42:00,
2013-05-12 05:52:00,44.0,35.0,30.11,WNW,298,0.0,2.0,70,0.00,,,0.01,,2013-05-12 10:52:00,
2013-05-12 06:02:00,44.0,35.0,30.11,West,279,2.0,3.0,70,0.00,,,0.01,,2013-05-12 11:02:00,
2013-05-12 06:12:00,44.0,35.0,30.11,West,279,2.0,3.0,70,0.00,,,0.01,,2013-05-12 11:12:00,
2013-05-12 06:22:00,44.0,34.0,30.12,WNW,286,1.0,1.0,69,0.00,,,0.01,,2013-05-12 11:22:00,
2013-05-12 06:32:00,44.0,34.0,30.12,NNW,327,3.0,3.0,68,0.00,,,0.01,,2013-05-12 11:32:00,
2013-05-12 06:42:00,44.0,34.0,30.13,NW,317,2.0,3.0,69,0.00,,,0.01,,2013-05-12 11:42:00,
2013-05-12 06:52:00,44.0,34.0,30.13,NW,317,2.0,3.0,69,0.00,,,0.01,,2013-05-12 11:52:00,
2013-05-12 07:01:00,44.0,34.0,30.14,NW,312,3.0,4.0,69,0.00,,,0.01,,2013-05-12 12:01:00,
2013-05-12 07:11:00,44.0,34.0,30.14,NW,317,0.0,3.0,68,0.00,,,0.01,,2013-05-12 12:11:00,
2013-05-12 07:21:00,44.0,34.0,30.14,NW,317,0.0,3.0,68,0.00,,,0.01,,2013-05-12 12:21:00,
2013-05-12 07:32:00,45.0,35.0,30.14,NNW,331,3.0,3.0,67,0.00,,,0.01,,2013-05-12 12:32:00,
2013-05-12 07:41:00,45.0,35.0,30.14,NNW,331,3.0,3.0,67,0.00,,,0.01,,2013-05-12 12:41:00,
2013-05-12 07:52:00,46.0,35.0,30.15,North,355,3.0,8.0,65,0.00,,,0.01,,2013-05-12 12:52:00,
2013-05-12 08:01:00,46.0,34.0,30.15,NW,311,2.0,3.0,63,0.00,,,0.01,,2013-05-12 13:01:00,
2013-05-12 08:11:00,46.0,34.0,30.15,NW,311,2.0,3.0,63,0.00,,,0.01,,2013-05-12 13:11:00,
2013-05-12 08:21:00,47.0,33.0,30.15,WNW,302,5.0,8.0,58,0.00,,,0.01,,2013-05-12 13:21:00,
2013-05-12 08:32:00,48.0,34.0,30.16,North,9,3.0,3.0,58,0.00,,,0.01,,2013-05-12 13:32:00,
2013-05-12 08:41:00,48.0,34.0,30.16,North,9,3.0,3.0,58,0.00,,,0.01,,2013-05-12 13:41:00,
2013-05-12 08:52:00,49.0,31.0,30.16,North,355,3.0,3.0,50,0.00,,,0.01,,2013-05-12 13:52:00,
2013-05-12 09:01:00,50.0,31.0,30.17,NNE,32,2.0,3.0,47,0.00,,,0.01,,2013-05-12 14:01:00,
2013-05-12 09:11:00,50.0,31.0,30.17,NNE,32,2.0,3.0,47,0.00,,,0.01,,2013-05-12 14:11:00,
2013-05-12 09:21:00,50.0,28.0,30.17,NNE,15,5.0,10.0,43,0.00,,,0.01,,2013-05-12 14:21:00,
2013-05-12 09:31:00,50.0,27.0,30.17,North,360,6.0,6.0,40,0.00,,,0.01,,2013-05-12 14:31:00,
2013-05-12 09:42:00,51.0,28.0,30.17,NNE,16,3.0,5.0,40,0.00,,,0.01,,2013-05-12 14:42:00,
2013-05-12 09:52:00,51.0,28.0,30.17,NNE,16,3.0,5.0,40,0.00,,,0.01,,2013-05-12 14:52:00,
2013-05-12 10:01:00,52.0,29.0,30.18,NNW,346,4.0,6.0,41,0.00,,,0.01,,2013-05-12 15:01:00,
2013-05-12 10:11:00,52.0,29.0,30.18,NNW,346,4.0,6.0,41,0.00,,,0.01,,2013-05-12 15:11:00,
2013-05-12 10:21:00,53.0,27.0,30.18,NNE,30,6.0,8.0,37,0.00,,,0.01,,2013-05-12 15:21:00,
2013-05-12 10:34:00,54.0,28.0,30.18,NW,306,6.0,6.0,37,0.00,,,0.01,,2013-05-12 15:34:00,
2013-05-12 10:42:00,54.0,28.0,30.18,NW,306,6.0,6.0,37,0.00,,,0.01,,2013-05-12 15:42:00,
2013-05-12 10:53:00,54.0,27.0,30.19,North,355,4.0,9.0,35,0.00,,,0.01,,2013-05-12 15:53:00,
2013-05-12 11:02:00,55.0,30.0,30.19,NNW,333,4.0,6.0,38,0.00,,,0.01,,2013-05-12 16:02:00,
2013-05-12 11:12:00,55.0,30.0,30.19,NNW,333,4.0,6.0,38,0.00,,,0.01,,2013-05-12 16:12:00,
2013-05-12 11:23:00,54.0,28.0,30.18,WSW,247,3.0,3.0,37,0.00,,,0.01,,2013-05-12 16:23:00,
2013-05-12 11:32:00,55.0,29.0,30.18,NW,324,6.0,9.0,37,0.00,,,0.01,,2013-05-12 16:32:00,
2013-05-12 11:42:00,55.0,29.0,30.18,NW,324,6.0,9.0,37,0.00,,,0.01,,2013-05-12 16:42:00,
2013-05-12 11:52:00,55.0,29.0,30.19,NNE,12,3.0,3.0,37,0.00,,,0.01,,2013-05-12 16:52:00,
2013-05-12 12:02:00,56.0,30.0,30.19,WNW,301,8.0,10.0,37,0.00,,,0.01,,2013-05-12 17:02:00,
2013-05-12 12:12:00,56.0,32.0,30.18,WNW,300,14.0,14.0,40,0.00,,,0.01,,2013-05-12 17:12:00,
2013-05-12 12:22:00,56.0,32.0,30.18,WNW,300,14.0,14.0,40,0.00,,,0.01,,2013-05-12 17:22:00,
2013-05-12 12:32:00,56.0,31.0,30.18,NNW,328,6.0,6.0,38,0.00,,,0.01,,2013-05-12 17:32:00,
2013-05-12 12:42:00,56.0,31.0,30.18,WNW,292,7.0,9.0,39,0.00,,,0.01,,2013-05-12 17:42:00,
2013-05-12 12:53:00,56.0,31.0,30.18,WNW,292,7.0,9.0,39,0.00,,,0.01,,2013-05-12 17:53:00,
2013-05-12 13:01:00,57.0,32.0,30.18,WNW,302,10.0,14.0,39,0.00,,,0.01,,2013-05-12 18:01:00,
2013-05-12 13:12:00,57.0,32.0,30.18,WNW,302,10.0,14.0,39,0.00,,,0.01,,2013-05-12 18:12:00,
2013-05-12 13:22:00,57.0,31.0,30.17,NNE,13,3.0,6.0,37,0.00,,,0.01,,2013-05-12 18:22:00,
2013-05-12 13:32:00,57.0,30.0,30.17,NW,305,4.0,8.0,36,0.00,,,0.01,,2013-05-12 18:32:00,
2013-05-12 13:42:00,57.0,30.0,30.17,NW,305,4.0,8.0,36,0.00,,,0.01,,2013-05-12 18:42:00,
2013-05-12 13:52:00,58.0,34.0,30.18,North,360,4.0,9.0,41,0.00,,,0.01,,2013-05-12 18:52:00,
2013-05-12 14:01:00,58.0,30.0,30.17,NNE,13,5.0,9.0,34,0.00,,,0.01,,2013-05-12 19:01:00,
2013-05-12 14:11:00,58.0,30.0,30.17,NNE,13,5.0,9.0,34,0.00,,,0.01,,2013-05-12 19:11:00,
2013-05-12 14:21:00,59.0,33.0,30.16,NW,306,9.0,9.0,37,0.00,,,0.01,,2013-05-12 19:21:00,
2013-05-12 14:32:00,58.0,31.0,30.16,North,5,2.0,7.0,36,0.00,,,0.01,,2013-05-12 19:32:00,
2013-05-12 14:42:00,59.0,30.0,30.16,NNW,338,3.0,6.0,33,0.00,,,0.01,,2013-05-12 19:42:00,
2013-05-12 14:52:00,59.0,30.0,30.16,NNW,338,3.0,6.0,33,0.00,,,0.01,,2013-05-12 19:52:00,
2013-05-12 15:02:00,59.0,34.0,30.16,WNW,303,6.0,10.0,39,0.00,,,0.01,,2013-05-12 20:02:00,
2013-05-12 15:11:00,60.0,29.0,30.16,NW,308,3.0,10.0,31,0.00,,,0.01,,2013-05-12 20:11:00,
2013-05-12 15:21:00,60.0,29.0,30.16,NW,308,3.0,10.0,31,0.00,,,0.01,,2013-05-12 20:21:00,
2013-05-12 15:32:00,60.0,32.0,30.15,West,272,10.0,12.0,34,0.00,,,0.01,,2013-05-12 20:32:00,
2013-05-12 15:42:00,60.0,32.0,30.15,West,272,10.0,12.0,34,0.00,,,0.01,,2013-05-12 20:42:00,
2013-05-12 15:52:00,60.0,34.0,30.15,NW,314,2.0,6.0,37,0.00,,,0.01,,2013-05-12 20:52:00,
2013-05-12 16:01:00,60.0,32.0,30.14,NW,325,3.0,10.0,35,0.00,,,0.01,,2013-05-12 21:01:00,
2013-05-12 16:11:00,61.0,35.0,30.13,NW,316,10.0,12.0,37,0.00,,,0.01,,2013-05-12 21:11:00,
2013-05-12 16:21:00,61.0,35.0,30.13,NW,316,10.0,12.0,37,0.00,,,0.01,,2013-05-12 21:21:00,
2013-05-12 16:33:00,61.0,33.0,30.13,NNW,342,3.0,10.0,35,0.00,,,0.01,,2013-05-12 21:33:00,
2013-05-12 16:42:00,61.0,33.0,30.13,NNW,342,3.0,10.0,35,0.00,,,0.01,,2013-05-12 21:42:00,
2013-05-12 16:53:00,61.0,30.0,30.13,NNW,332,3.0,7.0,31,0.00,,,0.00,,2013-05-12 21:53:00,
2013-05-12 17:02:00,61.0,32.0,30.13,NNE,19,3.0,8.0,33,0.00,,,0.00,,2013-05-12 22:02:00,
2013-05-12 17:12:00,61.0,32.0,30.13,NNE,19,3.0,8.0,33,0.00,,,0.00,,2013-05-12 22:12:00,
2013-05-12 17:23:00,60.0,32.0,30.13,NW,306,3.0,5.0,34,0.00,,,0.00,,2013-05-12 22:23:00,
2013-05-12 17:32:00,60.0,33.0,30.13,NE,46,3.0,10.0,36,0.00,,,0.00,,2013-05-12 22:32:00,
2013-05-12 17:42:00,60.0,33.0,30.13,NE,46,3.0,10.0,36,0.00,,,0.00,,2013-05-12 22:42:00,
2013-05-12 17:52:00,60.0,32.0,30.13,NW,312,4.0,6.0,34,0.00,,,0.00,,2013-05-12 22:52:00,
2013-05-12 18:02:00,60.0,32.0,30.13,NW,325,3.0,3.0,34,0.00,,,0.00,,2013-05-12 23:02:00,
2013-05-12 18:12:00,60.0,32.0,30.13,NW,316,1.0,3.0,35,0.00,,,0.00,,2013-05-12 23:12:00,
2013-05-12 18:22:00,60.0,32.0,30.13,NW,316,1.0,3.0,35,0.00,,,0.00,,2013-05-12 23:22:00,
2013-05-12 18:32:00,60.0,33.0,30.12,WNW,296,3.0,5.0,36,0.00,,,0.00,,2013-05-12 23:32:00,
2013-05-12 18:42:00,60.0,33.0,30.12,WNW,296,3.0,5.0,36,0.00,,,0.00,,2013-05-12 23:42:00,
2013-05-12 18:52:00,60.0,33.0,30.12,NW,324,5.0,5.0,36,0.00,,,0.00,,2013-05-12 23:52:00,
2013-05-12 19:01:00,59.0,32.0,30.12,NNW,327,6.0,6.0,36,0.00,,,0.00,,2013-05-13 00:01:00,
2013-05-12 19:11:00,59.0,32.0,30.12,NNW,327,6.0,6.0,36,0.00,,,0.00,,2013-05-13 00:11:00,
2013-05-12 19:21:00,59.0,32.0,30.13,NNW,327,2.0,3.0,36,0.00,,,0.00,,2013-05-13 00:21:00,
2013-05-12 19:32:00,58.0,33.0,30.13,WNW,303,0.0,2.0,38,0.00,,,0.00,,2013-05-13 00:32:00,
2013-05-12 19:42:00,58.0,34.0,30.13,WNW,303,0.0,1.0,41,0.00,,,0.00,,2013-05-13 00:42:00,
2013-05-12 19:52:00,58.0,34.0,30.13,WNW,303,0.0,1.0,41,0.00,,,0.00,,2013-05-13 00:52:00,
2013-05-12 20:01:00,58.0,34.0,30.13,WNW,303,0.0,0.0,41,0.00,,,0.00,,2013-05-13 01:01:00,
2013-05-12 20:11:00,58.0,34.0,30.13,WNW,303,0.0,0.0,41,0.00,,,0.00,,2013-05-13 01:11:00,
2013-05-12 20:22:00,56.0,37.0,30.13,WNW,303,0.0,0.0,48,0.00,,,0.00,,2013-05-13 01:22:00,
2013-05-12 20:31:00,55.0,38.0,30.13,WNW,303,0.0,0.0,52,0.00,,,0.00,,2013-05-13 01:31:00,
2013-05-12 20:41:00,55.0,38.0,30.13,WNW,303,0.0,0.0,52,0.00,,,0.00,,2013-05-13 01:41:00,
2013-05-12 20:52:00,53.0,38.0,30.14,WNW,303,0.0,0.0,57,0.00,,,0.00,,2013-05-13 01:52:00,
2013-05-12 21:01:00,52.0,38.0,30.15,WNW,303,0.0,0.0,58,0.00,,,0.00,,2013-05-13 02:01:00,
2013-05-12 21:11:00,52.0,38.0,30.15,WNW,303,0.0,0.0,58,0.00,,,0.00,,2013-05-13 02:11:00,
2013-05-12 21:21:00,51.0,38.0,30.15,WNW,303,0.0,0.0,62,0.00,,,0.00,,2013-05-13 02:21:00,
2013-05-12 21:31:00,50.0,38.0,30.16,WNW,303,0.0,0.0,63,0.00,,,0.00,,2013-05-13 02:31:00,
2013-05-12 21:41:00,50.0,38.0,30.16,WNW,303,0.0,0.0,63,0.00,,,0.00,,2013-05-13 02:41:00,
2013-05-12 21:51:00,48.0,38.0,30.16,WNW,303,0.0,0.0,68,0.00,,,0.00,,2013-05-13 02:51:00,
2013-05-12 21:52:00,49.0,38.0,30.16,WNW,303,0.0,0.0,65,0.00,,,0.00,,2013-05-13 02:52:00,
2013-05-12 22:01:00,48.0,38.0,30.16,WNW,303,0.0,0.0,67,0.00,,,0.00,,2013-05-13 03:01:00,
2013-05-12 22:11:00,48.0,38.0,30.16,WNW,303,0.0,0.0,67,0.00,,,0.00,,2013-05-13 03:11:00,
2013-05-12 22:21:00,48.0,38.0,30.16,WNW,303,0.0,0.0,68,0.00,,,0.00,,2013-05-13 03:21:00,
2013-05-12 22:32:00,48.0,38.0,30.16,WNW,303,0.0,0.0,68,0.00,,,0.00,,2013-05-13 03:32:00,
2013-05-12 22:42:00,48.0,38.0,30.16,WNW,303,0.0,0.0,68,0.00,,,0.00,,2013-05-13 03:42:00,